This demonstration page uses our WeatherBlox Daily Observations layout. Learn more.

Left ArrowRight Arrow

Hourly Observations for November 21, 2018

Temp ( °F °C ) Dew Point ( °F °C ) Humidity (%) Winds ( mph kmh ) Pressure ( in mb ) Visibility ( mi km ) Precip ( " mm )
12:52 am 00:52 Clear 33 0.6 29 -1.7 85 85 SE 7 11 30.16 1022 10 16 0.00 0.00
1:52 am 01:52 Clear 33 0.6 29 -1.7 85 85 SSE 3 6 30.17 1022 10 16 0.00 0.00
2:52 am 02:52 Clear 30 -1.1 27 -2.8 88 88 Calm 30.17 1022 9 14 0.00 0.00
3:52 am 03:52 Clear 29 -1.7 26 -3.3 89 89 SE 6 9 30.17 1022 10 16 0.00 0.00
4:52 am 04:52 Clear 31 -0.6 28 -2.2 89 89 SSE 5 7 30.17 1022 8 13 0.00 0.00
5:52 am 05:52 Clear 27 -2.8 24 -4.4 89 89 Calm 30.19 1022 7 11 0.00 0.00
6:52 am 06:52 Clear with Patchy Fog 26 -3.3 24 -4.4 92 92 NNW 3 6 30.20 1023 8 13 0.00 0.00
7:52 am 07:52 Sunny with Patchy Fog 27 -2.8 25 -3.9 92 92 Calm 30.22 1024 8 13 0.00 0.00
8:52 am 08:52 Sunny 33 0.6 29 -1.7 85 85 Calm 30.23 1024 8 13 0.00 0.00
9:52 am 09:52 Sunny 38 3.3 32 0 79 79 Calm 30.24 1024 10 16 0.00 0.00
10:52 am 10:52 Sunny 44 6.7 33 0.6 65 65 S 8 13 30.22 1023 10 16 0.00 0.00
11:52 am 11:52 Sunny 47 8.3 33 0.6 59 59 S 8 13 30.20 1023 10 16 0.00 0.00
12:52 pm 12:52 Sunny 51 10.6 34 1.1 52 52 S 5 7 30.17 1022 10 16 0.00 0.00
1:52 pm 13:52 Mostly Sunny 54 12.2 32 0 43 43 S 12 19 30.15 1021 10 16 0.00 0.00
2:52 pm 14:52 Mostly Sunny 54 12.2 33 0.6 45 45 SSE 10 17 30.15 1021 10 16 0.00 0.00
3:52 pm 15:52 Mostly Sunny 53 11.7 35 1.7 51 51 SSE 13 20 30.15 1021 10 16 0.00 0.00
4:52 pm 16:52 Partly Cloudy 47 8.3 35 1.7 63 63 SSE 8 13 30.16 1021 10 16 0.00 0.00
5:52 pm 17:52 Partly Cloudy 42 5.6 34 1.1 73 73 SE 8 13 30.16 1022 10 16 0.00 0.00
6:52 pm 18:52 Mostly Clear 40 4.4 34 1.1 79 79 SSE 7 11 30.18 1022 10 16 0.00 0.00
7:52 pm 19:52 Clear 40 4.4 34 1.1 79 79 S 6 9 30.17 1022 10 16 0.00 0.00
8:52 pm 20:52 Clear 39 3.9 33 0.6 79 79 S 7 11 30.17 1022 10 16 0.00 0.00
9:52 pm 21:52 Clear 39 3.9 33 0.6 79 79 SSE 7 11 30.16 1022 10 16 0.00 0.00
10:52 pm 22:52 Clear 37 2.8 33 0.6 86 86 SSE 5 7 30.16 1021 10 16 0.00 0.00
11:52 pm 23:52 Clear 36 2.2 31 -0.6 82 82 SSE 3 6 30.15 1021 10 16 0.00 0.00

Powered by AerisWeather